Weather Roundup
Issued by NWS

Home | Current Version | Previous Version | Graphics & Text | Print | Product List | Glossary Off
Versions: 1 2 3 4 5 6 7 8 9 10 11 12 13 14 15 16 17 18 19 20 21 22 23 24 25 26 27 28 29 30 31 32 33 34 35 36 37 38 39 40 41 42 43 44 45 46 47 48 49 50

000
NZUS93 KARX 182159
HRRWXR

CURRENT HOURLY OBSERVATIONS ACROSS
MUCH OF THE UPPER MISSISSIPPI VALLEY
NATIONAL WEATHER SERVICE LA CROSSE WI
500 PM CDT MON SEP 18 2017


...SOUTHEAST MINNESOTA...


CITY           SKY/WX    TMP DP  RH WIND       PRES   REMARKS
ROCHESTER      CLOUDY    59  56  89 SE7       30.01S
ROCHESTER/MAYO CLOUDY    58  57  97 SE7       30.01S
WINONA         CLOUDY    59  55  88 SE5       30.02S
AUSTIN         CLOUDY    63  57  82 SE5       29.98S
ALBERT LEA     RAIN      63  61  94 SE6       29.96F
DODGE CENTER   RAIN      57  55  94 E6        30.00S
PRESTON        CLOUDY    58  55  91 SE3       30.01S
OWATONNA       RAIN      57  55  94 E12       29.97F
FARIBAULT      DRIZZLE   57  55  94 SE9       29.96F
$$

...ELSEWHERE IN MINNESOTA...


CITY           SKY/WX    TMP DP  RH WIND       PRES   REMARKS
MINNEAPOLIS    CLOUDY    57  55  93 SE13      29.98F
INTNL FALLS    CLOUDY    62  50  64 SE9       29.93F
DULUTH         CLOUDY    57  51  80 SE12      30.00F
RED WING       CLOUDY    57  54  88 SE14      29.98F
REDWOOD FALLS  CLOUDY    62  57  83 SE10      29.91S
MANKATO        LGT RAIN  58  56  93 SE15      29.94F
WORTHINGTON    CLOUDY    65  63  93 SE6       29.91F
FAIRMONT       LGT RAIN  61  60  97 SE6       29.93F
$$

...SOUTHWEST WISCONSIN...


CITY           SKY/WX    TMP DP  RH WIND       PRES   REMARKS
LA CROSSE      LGT RAIN  61  57  87 E3        30.02F
PRAIRIE DU CHI CLOUDY    71  52  50 CALM      29.99F
BOSCOBEL       CLOUDY    74  54  49 CALM      29.99S
LONE ROCK      NOT AVBL
PLATTEVILLE    CLOUDY    75  52  44 S7        30.00F
FORT MC COY    LGT RAIN  61  58  90 NW7       30.05R
MAUSTON-NEW LI CLOUDY    72  56  57 E5        30.00S
VIROQUA        CLOUDY    64  55  72 CALM      30.03R
WIS DELLS      NOT AVBL
$$

...ELSEWHERE IN WISCONSIN...


CITY           SKY/WX    TMP DP  RH WIND       PRES   REMARKS
MILWAUKEE      MOSUNNY   68  59  73 NE9       30.05F
MADISON        PTSUNNY   76  47  35 S13       30.00S
GREEN BAY      MOSUNNY   67  57  70 NE10      30.07F
EAU CLAIRE     NOT AVBL
BLACK RVR FLS  HVY RAIN  60  56  87 S3        30.04R
MEDFORD        LGT RAIN  60  55  82 CALM      30.07R
WAUSAU         CLOUDY    64  54  69 E3        30.04S
WIS RAPIDS     CLOUDY    70  56  61 E9        30.03F
MARSHFIELD     CLOUDY    64  53  67 NW3       30.06R
RICE LAKE      LGT RAIN  53  51  94 SE5       30.05F
$$

...NORTHEAST IOWA...


CITY           SKY/WX    TMP DP  RH WIND       PRES   REMARKS
WATERLOO       CLOUDY    67  59  75 SE3       29.96F
DUBUQUE        CLOUDY    73  57  57 E5        30.00F
DECORAH        CLOUDY    63  59  88 CALM      29.99F
MASON CITY     CLOUDY    64  59  83 SE9       29.97F
CHARLES CITY   CLOUDY    63  63 100 E6        29.98F
OELWEIN        MOSUNNY   66  61  82 CALM      29.98F
$$

...ELSEWHERE IN IOWA...


CITY           SKY/WX    TMP DP  RH WIND       PRES   REMARKS
DES MOINES     CLOUDY    70  65  84 S7        29.92F
IOWA CITY      CLOUDY    79  62  56 SE5       29.96F
FORT DODGE     CLOUDY    65  63  93 SE8       29.93F
MARSHALLTOWN   CLOUDY    67  65  93 SE5       29.94F
CEDAR RAPIDS   MOSUNNY   75  61  61 S6        29.95F
$$

...NORTHERN ILLINOIS...


CITY           SKY/WX    TMP DP  RH WIND       PRES   REMARKS
CHICAGO-OHARE  PTSUNNY   73  53  49 NE10      30.01F
CHICAGO-MIDWAY PTSUNNY   71  57  61 E12       30.01F
MOLINE         CLOUDY    80  62  54 S6        29.95F
ROCKFORD       MOSUNNY   78  46  32 E7        29.99F
PEORIA         MOSUNNY   82  64  54 CALM      29.95F
$$

NOTE: "FAIR" INDICATES FEW OR NO CLOUDS BELOW 12,000 FEET WITH NO
SIGNIFICANT WEATHER AND/OR OBSTRUCTIONS TO VISIBILITY. WIND
SPEEDS ARE IN MILES-PER-HOUR.




USA.gov is the U.S. government's official web portal to all federal, state and local government web resources and services.